Regional Weather Roundup
Issued by NWS Wilmington, NC

Home | Current Version | Previous Version | Text Only | Print | Product List | Glossary On
Versions: 1 2 3 4 5 6 7 8 9 10 11 12 13 14 15 16 17 18 19 20 21 22 23 24 25 26 27
000
ASUS42 KILM 261413
RWRILM
RWRILM
REGIONAL HOURLY WEATHER ROUNDUP
NATIONAL WEATHER SERVICE WILMINGTON NC
1000 AM EDT MON SEP 26 2016

NOTE: "FAIR" INDICATES FEW OR NO CLOUDS BELOW 12,000 FEET WITH NO
SIGNIFICANT WEATHER AND/OR OBSTRUCTIONS TO VISIBILITY.

...............WFO WILMINGTON COUNTY WARNING AREA...............

......COASTAL NC AND SC COUNTIES......

CITY           SKY/WX    TMP DP  RH WIND       PRES   REMARKS
WILMINGTON     NOT AVBL
N MYRTLE BEACH SUNNY     78  68  71 NE10      30.10S
MYRTLE BEACH   SUNNY    N/A N/A N/A E7        30.11F

......INLAND NC AND SC COUNTIES.......

CITY           SKY/WX    TMP DP  RH WIND       PRES   REMARKS
LUMBERTON      NOT AVBL
ELIZABETHTOWN  CLOUDY    69  63  81 CALM      30.13S
WHITEVILLE     NOT AVBL
FLORENCE       PTSUNNY   74  66  76 E9        30.12S
DARLINGTON     MOSUNNY   73  66  78 VRB3      30.13R
KINGSTREE      FAIR      77  68  73 NE3       30.11R
HARTSVILLE     PTSUNNY   70  64  83 E6        30.12S
BENNETTSVILLE  CLOUDY    73  66  78 CALM      30.12S
CONWAY         FAIR      73  68  83 NE6       30.12R
GEORGETOWN     PTSUNNY   77  72  83 E8        30.10R
MARION         CLOUDY    70  64  83 NE6       30.12S

....................REST OF NORTH CAROLINA......................

.........EASTERN NC.........

CITY           SKY/WX    TMP DP  RH WIND       PRES   REMARKS
CAPE HATTERAS  NOT AVBL
JACKSONVILLE   SUNNY     73  62  68 E8        30.13S
MOREHEAD CITY  SUNNY     76  65  68 E7        30.12S
KENANSVILLE    PTSUNNY   72  63  73 E5        30.14R
NEW BERN       CLOUDY    73  61  65 E6        30.15R
ELIZABETH CITY SUNNY     73  58  59 E9        30.15R

.........CENTRAL NC.........

CITY           SKY/WX    TMP DP  RH WIND       PRES   REMARKS
RALEIGH DURHAM NOT AVBL
ROCKY MOUNT    CLOUDY    69  61  75 E3        30.15R
ROANOKE RAPIDS NOT AVBL
FAYETTEVILLE   NOT AVBL
HOFFMAN        CLOUDY    70  62  77 E6        30.13R

.........WESTERN NC.........

CITY           SKY/WX    TMP DP  RH WIND       PRES   REMARKS
CHARLOTTE      HVY RAIN  70  68  93 S7        30.13R VSB 3/4
GREENSBORO     CLOUDY    69  65  86 S9        30.12S
HICKORY        NOT AVBL
BOONE          NOT AVBL
ASHEVILLE      NOT AVBL

.....................REST OF SOUTH CAROLINA.....................

.........EASTERN SC.........

CITY           SKY/WX    TMP DP  RH WIND       PRES   REMARKS
CHARLESTON     LGT RAIN  77  72  84 E9        30.08R
BEAUFORT MCAS  CLOUDY    78  74  87 NE7       30.07R
HILTON HEAD    PTSUNNY   81  73  78 E6        30.07R

.........CENTRAL SC.........

CITY           SKY/WX    TMP DP  RH WIND       PRES   REMARKS
COLUMBIA       CLOUDY    76  70  82 E3        30.10R
ORANGEBURG     CLOUDY    74  72  93 NE3       30.10R
SUMTER SHAW    PTSUNNY   75  68  79 E5        30.10R

.........WESTERN SC.........

CITY           SKY/WX    TMP DP  RH WIND       PRES   REMARKS
GREENVILLE     NOT AVBL
ROCK HILL      CLOUDY    75  69  81 S8        30.14R
ANDERSON       PTSUNNY   76  69  79 S6        30.13R
CLEMSON        NOT AVBL
GREENWOOD      CLOUDY    75  69  81 SE6       30.14S


...................COASTAL AND OFFSHORE REPORTS..................

................LOCAL PIERS AND NC RESERVE................


STATION/POSITION TIME  SKY/WX   TEMP    WIND        PRES    VSBY
                                AIR SEA DIR/SP/G
                 (UTC)          (F)     (DEG/KT/KT) (MB)    (MI)
JOHNY MRCER PIER 1342            76 82   70/ 14/ 16 1018.8R
NC RESRV MASNBRO 1245            75      60/  7     1018.0
OCEAN CREST PIER NOT AVBL
SPRINGMAID  PIER 1342            75 82   30/ 12/ 14 1018.9R


................COASTAL AND OFFSHORE BUOYS................


STATION/POSITION TIME  SKY/WX   TEMP    WIND        PRES    VSBY
                                AIR SEA DIR/SP/G
                 (UTC)          (F)     (DEG/KT/KT) (MB)    (MI)
DIMNDSHOAL 41025 1350            75 80   60/ 12/ 14 1019.5R
WVE H/P(F/S)=  3/ 9 SWL H/P/D(F/S/D)=  2/100/ 9

CAPE LOOKOUT     1400            74      40/ 15/ 17 1019.6R
ONSLOW BAY 41036 NOT AVBL
ONSLOW BAY 41064 1308            77 81   60/ 16/ 19 1019.1R
ONSLOW BAY 41159 1355               81                N/A
WVE H/P(F/S)=  4/ 4

5SE WRITBC 41038 1308            77 80   80/ 14/ 19 1020.1R
MASNBO INL 41110 1359               80                N/A
WVE H/P(F/S)=  4/ 5

WILM HARBR 41108 1356               81                N/A
WVE H/P(F/S)=  3/ 4

27SE WRITB 41037 1308            78 81   60/ 16/ 19 1019.1R
FRYING PAN 41013 1350            80 82   60/ 12/ 16 1018.5R
WVE H/P(F/S)=  4/ 5 SWL H/P/D(F/S/D)=  2/130/ 9

SUNST NRSH 41024 1308            74 81   60/ 14/ 17 1018.8R
CAPRS NRSH 41029 1308            79 81   80/ 10/ 14 1018.0R
EDISTO     41004 1350            78 82  150/  6/  8 1017.8R
WVE H/P(F/S)=  4/ 6 SWL H/P/D(F/S/D)=  3/ 80/ 6



..........OFFSHORE BUOYS BEYOND 100 NM OFFSHORE...........
.....IN A TRIANGLE---HAT TO BERMUDA TO BAHAMAS TO HAT.....


STATION/POSITION TIME  SKY/WX   TEMP    WIND        PRES    VSBY
                                AIR SEA DIR/SP/G
                 (UTC)          (F)     (DEG/KT/KT) (MB)    (MI)
150E HAT   41001 NOT AVBL
W BERMUDA  41048 1350            78 84   40/ 12/ 16 1018.0R
WVE H/P(F/S)=  7/ 8 SWL H/P/D(F/S/D)=  7/ 40/ 8

ATLANTIC S 41049 1350            83 83  250/  8/ 10 1016.4R
WVE H/P(F/S)=  6/12 SWL H/P/D(F/S/D)=  5/110/12

E BAHAMAS  41046 1350            85 86   50/  4/  6 1016.1R
WVE H/P(F/S)=  4/11 SWL H/P/D(F/S/D)=  5/ 90/11

NE BAHAMAS 41047 1350            84 86   50/  6/  8 1015.9S
WVE H/P(F/S)=  3/ 9 SWL H/P/D(F/S/D)=  3/110/ 9

120E CANVRL41010 NOT AVBL

END




USA.gov is the U.S. government's official web portal to all federal, state and local government web resources and services.